Location: Hylvaty SDH
(49.9612°N, 16.4057°E)
Time: 21:09:22
(UTC+01:00)

Vanguard 1 Rocket - Pass Details

Date: 10 October 2020
Orbit: 656 x 4221 km, 34.3° (Epoch: 30 October)

Event Time Altitude Azimuth Distance (km) Brightness Sun altitude
Rises 23:22:16 0° 267° (W) 6,503 12.0 -44.0°
Reaches altitude 10° 23:30:19 10° 244° (WSW) 6,257 11.6 -44.6°
Maximum altitude 23:37:44 13° 222° (SW) 6,528 11.5 -45.1°
Enters shadow 23:39:49 13° 217° (SW) 6,667 11.5 -45.2°
Drops below altitude 10° 23:46:14 10° 201° (SSW) 7,218 - -45.6°
Sets 23:57:56 0° 180° (S) 8,453 - -46.2°
